Simultaneous Nadir Overpasses (SNOs) Predictions

Prediction of SNOs between AQUA and NOAA-19 Satellite Orbit:

Table of predicted SNOs for the next 14.0 days since TLE Epoch: 10/18/2019
Index Date (AQUA) Time (AQUA) Lat,Lon (AQUA) SZA (AQUA ) Date (NOAA-19) Time (NOAA-19) Lat,Lon (NOAA-19) SZA (NOAA-19 ) Distance(km) Time Diff (sec)
1 10/19/2019 20:48:19 -80.19, 15.69 88.59 10/19/2019 20:47:34 -80.19, 15.58 88.57 2.22 45
2 10/19/2019 21:37:46 80.22,-176.90 91.47 10/19/2019 21:38:28 80.22,-176.72 91.44 3.58 42
3 10/22/2019 02:22:02 80.18, 112.38 92.18 10/22/2019 02:20:51 80.19, 112.40 92.21 1.19 71
4 10/22/2019 03:11:30 -80.22, -80.30 87.76 10/22/2019 03:11:56 -80.21, -80.15 87.79 3.19 26
5 10/24/2019 08:45:13 80.21, 16.34 93.01 10/24/2019 08:45:14 80.18, 16.25 93.00 3.35 1
6 10/26/2019 14:18:57 -80.20, 112.94 86.24 10/26/2019 14:18:42 -80.18, 112.97 86.26 2.55 15
7 10/26/2019 15:08:23 80.20, -79.42 93.78 10/26/2019 15:09:36 80.19, -79.56 93.76 2.95 73
8 10/28/2019 19:52:39 80.17,-150.19 94.46 10/28/2019 19:51:58 80.19,-150.11 94.49 2.76 41
9 10/28/2019 20:42:07 -80.20, 17.17 85.49 10/28/2019 20:43:04 -80.20, 17.20 85.51 0.63 57
10 10/31/2019 01:26:23 -80.17, -53.61 84.82 10/31/2019 01:25:27 -80.17, -53.65 84.79 0.92 56




NCC Satellite Simultaneous Nadir Overpasses (SNOs) Prediction Service
